Weather History for Grants-Milan, NM

Change the Weather History Date:

Friday, March 30, 2012

  Actual Average Record
Temperature  
Mean Temperature 50 °F -  
Max Temperature 73 °F 60 °F 77 °F (1971)
Min Temperature 27 °F 24 °F 5 °F (1987)
Degree Days  
Heating Degree Days 15    
Moisture  
Dew Point 15 °F    
Average Humidity 25    
Maximum Humidity 51    
Minimum Humidity 11    
Precipitation  
Precipitation 0.18 in - - ()
Sea Level Pressure  
Sea Level Pressure 29.94 in    
Wind  
Wind Speed 6 mph (WNW)    
Max Wind Speed 13 mph    
Max Gust Speed 20 mph    
Averages and records for this station are not official NWS values.
T = Trace of Precipitation, MM = Missing Value Source: NWS Daily Summary

Daily Weather History Graph

Daily Weather History Graph

Search for Another Location

Airport:

Trip Planner

Search our weather history database for the weather conditions in past years. The results will help you decide how hot, cold, wet, or windy it might be!

Date:

Astronomy

Mar. 30, 2012 Rise Set
Actual Time 7:00 AM MDT 7:31 PM MDT
Civil Twilight 6:34 AM MDT 7:57 PM MDT
Nautical Twilight 6:04 AM MDT 8:27 PM MDT
Astronomical Twilight 5:34 AM MDT 8:58 PM MDT
Moon 12:19 PM MDT (3/30) 2:00 AM MDT (3/30)
Length of Visible Light 13h 22m
Length of Day
12h 31m
Waxing Crescent, 49% of the Moon is Illuminated
Mar 30
Waxing Crescent
Mar 30
First Quarter
Apr 6
Full
Apr 13
Last Quarter
Apr 21
New

Hourly Weather History & Observations

Time (MDT) Temp. Windchill Dew Point Humidity Pressure Visibility Wind Dir Wind Speed Gust Speed Precip Events Conditions
12:53 AM 43.0 °F 38.8 °F 12.9 °F 30% 29.93 in - NW 6.9 mph - 0.03 in   Unknown
1:53 AM 41.0 °F 39.0 °F 14.0 °F 33% 29.94 in - WNW 3.5 mph - 0.01 in   Unknown
2:53 AM 37.9 °F 33.5 °F 12.9 °F 36% 29.94 in - WNW 5.8 mph - 0.01 in   Unknown
3:53 AM 32.0 °F 24.8 °F 10.0 °F 40% 29.95 in - NW 8.1 mph - 0.01 in   Unknown
4:53 AM 34.0 °F 28.8 °F 12.9 °F 42% 29.95 in - NNW 5.8 mph - 0.01 in   Unknown
5:53 AM 30.0 °F 26.5 °F 10.9 °F 45% 29.96 in - WNW 3.5 mph - 0.01 in   Unknown
6:53 AM 27.0 °F - 10.9 °F 51% 29.98 in - Calm Calm - 0.01 in   Unknown
7:53 AM 35.1 °F 29.3 °F 14.0 °F 42% 30.01 in - NNW 6.9 mph - 0.01 in   Unknown
8:53 AM 43.0 °F 40.3 °F 16.0 °F 34% 30.01 in - NNW 4.6 mph - N/A   Unknown
9:53 AM 51.1 °F - 16.0 °F 25% 29.99 in - Calm Calm - N/A   Unknown
10:53 AM 59.0 °F - 17.1 °F 20% 29.96 in - Calm Calm - N/A   Unknown
11:53 AM 64.0 °F - 18.0 °F 17% 29.96 in - WNW 5.8 mph - N/A   Unknown
12:53 PM 68.0 °F - 18.0 °F 15% 29.92 in - Variable 4.6 mph - N/A   Unknown
1:53 PM 70.0 °F - 17.1 °F 13% 29.90 in - Calm Calm - N/A   Unknown
2:53 PM 72.0 °F - 17.1 °F 12% 29.87 in - NE 11.5 mph - N/A   Unknown
3:53 PM 73.0 °F - 15.1 °F 11% 29.87 in - Variable 6.9 mph - N/A   Unknown
4:53 PM 72.0 °F - 15.1 °F 11% 29.86 in - West 12.7 mph 19.6 mph N/A   Unknown
5:53 PM 71.1 °F - 16.0 °F 12% 29.89 in - NW 6.9 mph - N/A   Unknown
6:53 PM 68.0 °F - 15.1 °F 13% 29.92 in - West 11.5 mph - N/A   Unknown
7:53 PM 60.1 °F - 15.1 °F 17% 29.94 in - West 8.1 mph - N/A   Unknown
8:53 PM 57.0 °F - 17.1 °F 21% 29.95 in - West 11.5 mph - 0.04 in   Unknown
9:53 PM 55.9 °F - 14.0 °F 19% 29.92 in - West 11.5 mph - 0.02 in   Unknown
10:53 PM 51.1 °F - 15.1 °F 24% 29.92 in - NNW 5.8 mph - N/A   Unknown
11:53 PM 46.0 °F 42.5 °F 15.1 °F 29% 29.94 in - West 6.9 mph - 0.02 in   Unknown